Wind_Speed
73 74 75 77 79 81 81 82 83 83 82 81 79 78 77 78 78 79 80 81 82 83 84 84 85 85 85 86 86 86 87 88 89 90 91 92 92 92 93 93 92 91 89 89 91 91 92 92 92 91 89 87 86 86 85 84 82 79 77 75 75 75 75
74 76 77 79 81 82 83 84 84 85 84 82 81 79 79 78 79 80 82 83 84 85 86 86 86 87 87 88 88 88 89 90 91 92 93 94 94 95 95 95 95 93 92 93 93 93 94 94 93 91 89 87 86 86 86 85 82 80 77 76 75 75 74
75 77 78 80 82 84 85 85 85 85 84 83 81 80 79 79 80 81 83 85 86 87 88 88 88 89 89 90 90 91 92 93 94 95 95 96 97 97 97 97 96 94 92 91 91 90 90 90 89 87 85 84 84 84 84 83 81 79 77 76 75 75 74
74 76 78 81 83 85 86 86 86 86 85 83 82 81 80 80 81 83 85 86 88 89 90 90 90 91 92 93 93 94 95 96 97 98 98 98 99 99 98 97 95 91 86 83 81 80 81 82 82 81 80 80 81 81 81 80 79 77 76 75 74 74 74
74 76 79 82 85 87 87 87 87 86 85 84 83 82 81 82 83 86 87 88 90 91 92 93 93 94 95 96 97 98 98 99 100 101 101 101 100 98 96 93 89 84 79 75 73 72 73 74 75 75 75 76 76 77 76 76 75 74 73 73 73 72 72
76 79 82 85 87 88 88 88 88 87 86 84 83 83 83 84 86 87 89 91 92 93 94 95 96 97 98 99 100 101 101 102 103 102 101 99 97 93 89 84 79 75 73 71 69 69 69 70 71 71 71 71 72 73 73 72 72 72 72 71 71 70 69
79 82 85 88 90 90 89 89 89 88 87 86 85 85 85 86 88 90 91 93 94 96 97 98 99 100 101 102 103 103 103 103 102 100 96 92 87 81 77 74 71 70 69 68 67 67 66 67 68 68 68 68 69 69 69 70 70 71 70 68 67 66 66
82 84 87 90 91 92 91 90 90 89 88 87 87 87 88 89 90 92 93 95 96 98 99 101 102 103 104 104 104 103 101 98 94 89 85 80 75 72 70 69 68 67 66 65 64 63 63 64 65 65 66 66 66 66 67 67 68 67 66 65 65 65 64
84 86 89 91 93 93 93 92 91 90 90 89 89 90 91 92 93 94 96 97 99 100 101 102 103 104 104 103 99 95 91 86 81 77 73 71 68 67 67 66 65 64 64 62 61 61 61 61 61 62 63 64 64 64 64 64 64 63 63 63 63 62 62
87 89 91 93 95 95 94 93 92 92 91 91 91 92 93 94 96 97 98 100 101 102 103 103 104 103 100 94 88 83 78 74 71 69 68 66 65 64 63 63 63 62 61 59 58 58 58 57 57 59 60 60 60 60 61 61 61 60 61 61 61 61 61
89 91 94 96 97 97 96 94 93 93 93 93 94 95 96 97 98 99 101 102 103 103 104 103 101 97 90 82 76 72 69 66 65 63 63 62 61 60 60 60 60 59 58 57 55 55 55 54 54 55 56 56 57 58 58 58 58 58 59 59 59 59 59
92 94 97 99 99 98 97 95 94 94 94 95 96 97 98 99 100 102 103 103 104 104 102 98 92 85 78 72 67 64 61 60 59 57 58 58 57 57 58 57 57 57 56 55 54 53 52 52 52 52 53 53 54 54 55 55 55 56 57 58 57 56 56
94 97 99 101 101 99 97 96 96 96 97 98 99 100 101 102 103 104 104 104 103 100 93 86 79 74 69 65 60 57 56 56 56 56 56 57 56 56 55 55 54 54 54 53 53 51 51 50 50 49 50 51 51 51 52 53 54 55 55 55 54 54 54
96 99 101 103 102 100 99 98 99 99 100 101 102 103 103 104 105 104 102 98 93 86 79 74 70 66 62 59 56 56 56 57 58 58 58 58 58 57 55 54 53 53 52 51 51 50 50 50 49 48 49 49 49 50 52 53 53 53 53 52 51 52 52
98 101 103 104 102 101 100 101 101 102 102 102 103 103 104 103 101 98 92 86 79 73 68 65 63 60 58 57 57 58 58 59 60 60 60 60 59 58 56 54 53 52 51 50 50 49 49 50 49 49 49 49 49 51 52 52 52 52 51 50 49 49 50
101 103 104 104 103 102 102 103 103 103 102 102 102 100 99 95 90 85 79 74 69 65 62 60 58 57 58 58 60 61 61 61 61 61 60 59 58 57 56 55 54 52 51 50 50 49 49 49 49 48 49 49 49 50 51 51 50 50 49 48 47 47 47
103 104 104 104 104 104 104 104 103 102 101 99 96 92 88 83 79 75 71 67 63 61 59 58 59 59 60 61 62 62 61 60 60 59 58 58 57 56 55 54 53 52 51 50 50 49 49 49 48 48 48 48 49 49 49 48 48 48 47 46 46 46 46
104 105 105 104 105 106 105 103 100 99 96 92 87 81 77 74 71 69 65 62 60 60 60 61 62 62 62 62 61 60 58 57 56 56 56 55 55 54 54 53 53 52 51 51 50 49 48 48 48 47 47 47 47 47 47 46 46 47 46 45 45 45 45
105 106 105 105 106 106 103 99 97 94 89 83 77 73 70 68 66 65 63 62 62 63 63 64 64 63 62 60 58 56 54 53 52 52 52 52 52 52 52 52 51 51 50 50 50 49 48 47 47 47 46 46 46 46 45 46 46 46 46 46 46 46 46
105 105 105 105 105 102 99 96 92 87 80 75 71 68 65 64 64 64 63 63 64 65 65 65 64 61 59 56 54 52 51 51 51 51 50 50 50 51 51 50 50 50 49 49 49 49 48 47 47 46 46 45 45 45 46 46 46 46 46 47 47 47 48
104 104 104 104 101 98 95 92 86 79 73 70 67 65 63 63 65 66 65 65 64 64 63 62 60 58 55 53 52 51 51 52 52 52 51 51 51 51 50 50 50 50 49 49 48 48 48 47 47 47 47 46 45 46 47 47 47 47 48 49 49 49 50
103 104 102 99 96 93 91 86 79 73 69 67 65 65 64 64 65 67 66 64 62 61 60 58 57 55 54 52 52 52 53 54 54 54 54 53 53 53 52 51 51 51 50 49 48 47 48 48 48 47 48 48 47 47 48 49 49 49 50 51 51 51 52
102 102 99 95 92 88 83 78 74 70 67 66 66 67 66 65 65 65 64 61 59 58 57 56 55 55 54 53 53 54 55 56 57 57 57 56 56 55 54 54 53 53 52 51 50 49 48 48 49 49 49 49 50 50 50 51 51 51 52 53 53 54 55
100 98 95 92 87 82 76 72 71 69 68 68 68 68 67 65 63 61 60 58 56 55 56 56 56 57 56 56 55 56 57 58 60 60 60 59 58 58 57 56 56 56 55 54 53 52 50 49 49 50 50 51 52 53 53 53 53 53 54 55 56 56 57
98 95 91 87 81 75 71 70 70 70 70 69 68 66 65 63 61 59 58 57 56 56 57 58 59 60 60 59 59 59 60 61 62 63 62 62 61 61 60 60 59 58 58 57 56 55 54 53 52 52 52 53 54 54 55 56 57 57 57 58 58 59 60
96 92 86 80 74 71 70 70 71 71 71 69 67 65 63 61 60 60 60 59 59 59 60 61 62 63 64 63 62 62 63 64 65 66 65 65 64 64 64 64 63 62 61 60 59 58 58 57 57 56 56 55 55 56 57 59 60 60 61 62 62 63 64
91 85 79 74 70 69 70 71 71 71 70 67 65 64 62 62 62 62 63 63 63 63 64 64 65 66 67 67 67 66 66 67 68 69 68 68 67 67 68 68 67 66 65 64 63 62 62 62 62 61 60 59 59 59 60 61 62 63 63 65 65 66 67
84 78 73 70 70 70 71 71 70 69 68 66 64 64 64 64 65 66 66 67 67 67 67 68 68 69 70 71 71 70 70 71 72 72 72 71 71 71 71 72 71 71 70 69 68 67 66 66 66 66 66 65 64 64 64 64 64 65 66 67 68 69 70
77 73 71 71 71 72 71 70 69 68 67 66 66 66 67 68 69 70 70 70 71 71 71 71 72 73 74 74 75 75 75 75 76 77 77 76 75 75 75 76 76 75 75 74 73 72 71 71 71 70 70 70 70 70 69 69 69 69 70 70 71 72 73
73 71 71 72 73 72 71 69 68 68 68 68 69 69 70 71 72 73 74 75 75 75 76 76 76 77 78 79 80 80 80 80 81 81 81 81 80 80 80 80 80 80 79 79 77 76 76 76 75 75 75 75 75 75 75 75 74 74 74 75 75 76 77
72 73 73 74 73 72 71 69 69 70 71 71 72 73 74 75 76 77 78 80 80 81 81 82 82 83 83 84 85 85 85 86 86 86 86 86 85 84 84 84 84 83 83 82 82 81 80 80 80 80 80 80 80 80 80 80 80 79 79 80 80 80 81
74 75 75 74 72 72 71 71 71 72 74 75 76 77 78 79 80 81 83 84 85 86 87 88 88 89 89 89 90 90 90 90 90 90 90 90 90 89 88 88 88 87 86 86 85 85 84 84 83 83 83 83 83 84 84 84 84 84 84 84 84 85 85
76 75 74 74 73 72 73 74 75 76 77 79 80 81 82 83 84 85 87 88 90 91 93 93 94 94 94 94 94 94 94 94 94 94 94 93 93 93 92 91 91 90 90 89 88 88 87 87 87 86 86 86 86 86 87 87 87 88 88 88 88 89 89
77 76 75 74 74 75 76 77 78 80 81 82 84 85 86 87 89 90 91 92 94 95 96 96 96 96 96 96 96 96 96 96 96 96 95 95 95 94 94 94 93 92 92 92 91 90 90 89 89 89 88 88 89 89 89 90 90 90 91 91 92 92 92
78 77 77 77 78 79 80 81 83 84 85 86 88 89 91 92 93 94 95 95 95 96 96 96 96 96 96 96 96 96 96 96 95 95 95 95 94 94 94 94 93 93 92 92 92 91 91 91 91 91 90 90 90 90 90 91 91 92 93 93 94 94 95
79 79 80 81 82 83 85 86 87 88 90 91 92 93 94 95 95 95 95 95 95 94 94 94 94 93 93 93 92 92 92 92 92 92 92 92 92 92 92 92 92 91 91 91 91 91 91 92 92 92 92 91 91 91 91 92 93 93 94 95 96 97 97
Wind_Direction
309 310 310 309 309 309 309 309 308 307 307 307 306 304 303 301 300 298 297 297 297 297 297 298 298 298 297 297 297 296 295 294 294 293 293 293 293 293 292 292 291 291 290 289 287 285 284 283 281 280 280 279 277 276 274 273 272 270 269 267 265 263 262
308 308 308 308 307 308 308 307 307 306 306 306 305 304 302 301 299 298 297 296 296 297 297 297 298 297 297 296 296 295 294 293 293 292 292 292 292 292 291 291 291 290 289 288 286 285 283 282 281 279 278 277 276 274 273 271 270 269 268 267 265 264 263
306 307 307 306 306 307 307 306 306 306 305 305 304 303 302 300 298 297 296 296 296 297 297 297 297 296 296 296 295 294 293 293 293 292 292 292 292 292 291 291 291 290 288 286 285 283 282 280 279 278 277 276 274 272 271 270 269 268 267 266 265 264 263
306 306 307 307 307 306 306 305 305 305 305 304 303 302 301 299 297 296 296 296 297 297 297 297 297 296 296 296 295 294 294 293 293 293 293 293 292 292 292 292 292 291 289 287 284 282 280 279 278 277 275 274 273 271 270 269 269 268 266 265 265 264 263
307 308 309 309 308 307 305 305 304 304 304 303 302 301 299 298 297 296 297 297 297 297 297 297 297 296 296 296 295 295 295 294 294 294 294 293 293 293 293 292 292 291 290 288 285 283 280 279 277 276 274 273 272 271 270 269 268 267 266 265 264 263 262
308 309 311 311 310 308 306 304 304 304 303 302 301 300 298 297 296 296 296 297 297 297 297 297 297 297 296 296 296 296 296 296 295 295 294 294 293 293 292 291 291 290 289 287 285 283 280 278 277 275 274 272 271 270 269 269 268 267 265 264 262 262 262
308 309 311 312 312 310 307 304 303 303 303 302 301 299 297 296 296 296 296 296 296 296 297 297 297 297 296 296 297 297 297 296 295 295 294 294 293 292 291 290 289 288 287 286 284 281 279 277 276 274 273 272 270 269 268 267 266 265 264 264 263 263 263
309 310 311 312 312 311 307 304 303 303 302 301 300 298 297 296 295 295 296 296 296 297 297 297 297 297 297 297 298 297 296 295 295 294 293 293 292 291 290 289 289 288 287 285 283 280 278 276 275 273 272 271 270 268 267 266 265 265 265 265 264 263 263
310 310 311 312 312 311 308 305 303 302 301 300 299 298 297 296 296 296 296 296 297 297 297 297 297 297 298 298 298 297 296 296 295 294 293 292 291 290 290 289 289 288 287 285 283 280 278 275 274 273 271 270 269 268 267 266 266 265 265 264 264 263 263
310 311 311 312 311 310 308 306 303 302 301 300 299 298 297 297 296 297 297 297 297 297 297 298 298 299 299 300 299 297 296 295 294 293 292 292 291 290 290 289 289 288 287 285 283 281 278 276 274 272 271 270 269 268 267 266 266 265 265 265 264 264 263
310 311 311 311 311 310 308 306 303 301 300 299 298 298 297 297 297 297 297 298 298 298 298 299 299 300 300 299 297 296 295 294 294 294 293 293 292 292 291 290 290 289 288 286 284 281 279 277 274 272 271 269 268 267 267 266 266 265 265 264 263 262 262
310 311 311 311 310 309 308 306 303 301 300 299 299 298 299 298 298 298 298 298 298 298 299 299 299 299 298 297 295 294 294 294 294 295 296 295 295 293 292 292 292 291 290 288 286 283 281 278 275 273 271 269 268 267 266 265 265 264 263 262 262 262 261
311 311 311 311 310 309 308 306 303 301 300 300 300 300 300 299 299 298 298 298 298 298 298 298 298 297 296 295 294 293 293 294 295 296 297 297 296 295 294 294 293 292 291 289 288 285 282 279 277 274 272 270 269 267 265 264 263 262 261 261 261 260 259
311 311 311 310 309 308 307 305 303 302 301 301 301 301 300 299 299 298 298 298 297 297 297 296 296 295 294 293 292 291 292 293 294 295 295 295 295 295 295 295 294 292 291 290 288 287 284 281 279 276 273 271 269 267 265 264 262 261 261 260 258 257 257
310 311 310 309 308 307 306 304 303 302 302 301 301 301 300 299 299 298 298 298 297 296 296 295 294 293 292 292 291 291 293 293 294 293 293 293 293 294 295 295 294 293 292 291 289 287 285 283 281 278 275 272 269 267 265 263 262 261 259 256 254 254 255
310 310 309 308 307 306 304 303 302 301 301 301 301 300 300 299 299 298 298 297 296 295 294 293 292 292 291 291 292 293 294 294 293 293 292 292 292 293 293 294 294 293 292 291 290 289 287 285 282 279 276 272 269 266 264 263 261 258 255 252 251 252 252
309 309 308 307 305 304 303 302 301 301 301 301 301 301 300 299 298 297 297 296 295 295 294 293 292 292 292 292 293 293 294 293 293 293 292 292 292 292 293 293 293 293 292 291 290 289 288 286 283 280 276 273 270 267 264 261 258 254 252 251 251 251 251
308 307 306 305 304 303 303 302 301 301 301 301 301 300 300 298 297 296 295 295 294 294 293 293 292 292 293 293 294 294 294 294 293 293 293 293 292 292 292 292 293 294 293 292 290 289 288 286 284 281 277 274 270 266 262 258 254 252 251 251 251 251 253
307 306 304 303 303 302 302 301 301 301 301 301 300 300 299 297 295 294 294 294 294 293 293 293 293 293 294 294 294 294 294 294 294 294 294 294 293 293 293 293 293 294 294 293 291 289 287 286 285 283 279 274 269 264 260 255 252 250 250 250 251 252 253
305 304 302 302 302 302 302 302 302 301 301 300 299 299 298 296 295 294 294 294 294 294 294 293 293 294 294 294 294 294 294 294 294 294 294 294 294 294 294 294 294 294 294 293 292 289 287 286 285 283 279 273 267 262 257 254 252 250 250 250 251 252 253
302 301 301 302 302 303 303 302 302 301 300 299 298 297 296 295 294 294 294 294 294 293 293 293 293 293 293 294 294 294 294 294 294 294 294 294 294 295 295 296 296 295 294 293 292 291 288 286 284 282 279 273 267 262 258 254 252 251 251 251 252 253 254
300 301 302 302 303 303 303 301 300 299 298 298 297 296 295 294 294 293 293 294 293 293 292 292 292 293 293 293 293 293 293 294 293 293 293 293 294 294 294 295 295 295 294 293 293 291 289 286 283 281 278 274 268 263 259 256 254 252 252 253 253 254 256
300 301 303 303 303 303 301 299 298 297 297 296 296 295 294 294 293 293 293 293 292 292 292 292 292 292 292 292 293 293 293 293 292 292 292 292 292 292 293 293 292 292 292 292 292 291 289 287 284 281 278 275 270 265 261 258 256 255 255 254 255 255 256
301 303 303 303 303 301 299 297 297 296 296 295 295 295 294 294 293 292 292 291 291 291 291 291 292 291 291 291 291 291 291 291 290 290 290 291 291 291 290 290 290 290 290 290 290 289 289 287 284 281 277 274 271 267 264 261 258 257 256 256 256 256 257
303 303 303 302 301 299 297 296 296 296 295 295 294 294 293 293 292 291 290 290 290 290 290 290 290 290 290 290 290 289 289 289 289 289 289 289 289 289 288 288 287 287 287 287 287 287 287 286 284 281 277 274 272 269 267 264 261 259 258 258 257 257 258
303 302 302 300 298 297 296 296 295 295 295 294 293 292 292 291 291 290 290 290 290 290 289 289 290 290 289 289 289 289 288 288 288 288 288 288 288 288 287 286 286 285 285 284 284 284 283 283 281 280 278 276 274 271 268 266 264 263 262 261 260 260 260
302 301 300 298 296 296 296 295 295 294 293 292 292 291 290 290 290 290 290 290 290 290 290 290 290 290 290 290 289 289 288 288 287 287 287 287 287 286 286 285 285 284 283 283 282 281 281 280 279 279 278 277 275 272 270 268 266 265 263 263 262 262 262
300 299 298 296 296 296 295 294 293 292 291 291 290 290 290 290 290 289 290 290 290 290 290 290 290 290 290 290 289 289 288 288 287 287 287 286 286 286 285 284 284 283 282 282 281 280 279 278 278 277 277 276 274 273 271 269 268 266 265 264 263 263 263
299 298 297 296 296 295 294 293 292 291 290 290 290 290 290 290 290 290 290 290 290 290 290 290 290 289 289 289 289 289 288 287 287 286 286 285 285 284 284 283 283 282 281 281 280 279 278 277 277 276 275 274 273 272 271 269 268 267 265 264 263 263 263
298 297 297 296 296 295 294 293 292 291 290 290 290 290 290 290 290 291 291 291 291 290 290 290 290 289 289 289 288 288 287 287 286 286 285 284 284 283 282 282 281 281 280 279 279 278 277 276 275 275 274 273 272 272 271 270 269 267 266 265 264 263 263
297 297 297 296 295 294 293 292 291 290 290 290 291 291 291 292 292 292 292 292 292 292 292 291 291 290 289 289 288 288 287 286 286 285 284 284 283 282 281 280 279 279 278 278 277 276 276 275 274 273 273 272 272 271 270 270 269 268 268 267 266 265 265
298 298 297 295 294 293 292 291 291 291 291 292 292 293 293 293 293 293 293 293 293 293 293 292 291 290 290 289 288 287 286 286 285 284 284 283 282 281 280 279 279 278 277 276 275 274 274 273 272 272 271 271 271 270 270 270 270 269 268 268 267 267 266
298 297 295 294 293 292 291 291 291 292 292 293 293 293 293 293 293 293 293 293 293 293 292 291 291 290 289 288 287 286 286 285 284 283 283 282 281 280 280 279 278 277 276 275 274 273 273 272 271 270 270 269 269 269 269 269 269 269 269 268 268 267 267
297 296 294 293 292 292 292 292 292 292 293 293 293 293 293 294 293 293 293 292 292 291 291 290 289 288 287 287 286 285 284 283 283 282 281 280 280 279 278 278 277 276 276 275 274 273 272 271 270 270 269 268 268 267 267 267 268 268 268 268 268 268 268
297 296 295 294 294 293 293 293 293 293 294 294 294 294 294 294 293 293 292 291 290 289 289 288 287 286 285 284 284 283 282 281 281 280 279 279 278 278 277 276 276 275 275 274 273 273 272 271 270 269 269 268 268 267 267 267 267 267 267 267 267 268 268
297 296 295 295 295 295 295 295 295 295 295 295 294 294 293 293 292 291 291 290 289 288 287 286 285 284 283 282 281 281 280 279 279 278 278 277 277 276 276 275 275 274 274 273 273 272 271 271 270 270 269 269 269 268 267 267 266 266 266 266 266 267 267
Height
10430 10427 10424 10420 10415 10411 10407 10402 10397 10392 10388 10384 10380 10376 10372 10367 10363 10359 10355 10352 10348 10344 10340 10338 10334 10330 10326 10323 10320 10316 10312 10309 10306 10303 10301 10298 10296 10293 10290 10288 10287 10288 10290 10289 10285 10282 10279 10276 10276 10276 10275 10277 10278 10277 10277 10277 10278 10280 10282 10285 10285 10286 10286
10422 10419 10415 10411 10406 10401 10397 10393 10387 10383 10378 10374 10370 10366 10361 10357 10353 10349 10344 10340 10337 10333 10329 10326 10323 10319 10315 10312 10309 10306 10301 10298 10295 10292 10289 10286 10283 10281 10278 10274 10273 10273 10274 10273 10270 10267 10263 10259 10259 10260 10260 10261 10261 10260 10260 10261 10263 10266 10268 10269 10270 10271 10272
10414 10410 10406 10402 10397 10392 10387 10382 10377 10373 10368 10364 10360 10356 10352 10347 10343 10338 10333 10329 10325 10321 10318 10314 10311 10307 10303 10300 10297 10293 10289 10286 10282 10279 10276 10273 10270 10267 10264 10261 10259 10259 10259 10258 10255 10252 10248 10244 10243 10244 10244 10244 10244 10244 10244 10245 10248 10251 10253 10255 10255 10256 10257
10405 10401 10396 10392 10387 10382 10377 10372 10367 10362 10358 10354 10350 10346 10342 10337 10332 10327 10322 10318 10313 10309 10306 10302 10299 10294 10291 10287 10284 10280 10276 10273 10269 10266 10262 10260 10256 10253 10250 10246 10243 10243 10242 10241 10239 10237 10233 10230 10228 10229 10229 10228 10228 10228 10229 10230 10233 10236 10238 10240 10241 10242 10243
10396 10391 10387 10382 10376 10371 10366 10361 10356 10352 10347 10343 10339 10335 10331 10326 10320 10315 10311 10306 10301 10296 10293 10289 10285 10281 10277 10274 10270 10266 10262 10259 10255 10251 10248 10244 10241 10238 10235 10231 10229 10227 10226 10225 10224 10222 10220 10217 10215 10214 10214 10214 10214 10214 10215 10216 10219 10221 10223 10225 10226 10228 10229
10386 10381 10376 10371 10366 10360 10355 10350 10345 10340 10336 10332 10328 10323 10319 10314 10309 10304 10299 10294 10289 10284 10280 10276 10272 10268 10264 10260 10256 10252 10248 10244 10240 10236 10233 10229 10226 10223 10220 10218 10216 10215 10213 10211 10210 10209 10207 10205 10203 10201 10200 10201 10201 10201 10202 10204 10205 10206 10207 10210 10212 10215 10217
10376 10371 10366 10360 10355 10349 10344 10339 10333 10329 10325 10321 10316 10312 10307 10302 10297 10292 10287 10282 10277 10272 10268 10263 10259 10255 10250 10246 10242 10238 10235 10230 10226 10222 10218 10215 10212 10210 10207 10206 10204 10203 10201 10200 10198 10196 10195 10192 10191 10189 10188 10188 10188 10189 10190 10191 10191 10192 10194 10197 10200 10203 10205
10365 10360 10355 10349 10344 10338 10332 10327 10322 10317 10313 10309 10305 10300 10295 10290 10285 10281 10276 10271 10266 10260 10255 10251 10246 10241 10237 10233 10229 10226 10221 10216 10212 10209 10205 10202 10200 10198 10196 10194 10193 10191 10189 10188 10186 10185 10183 10181 10180 10178 10177 10176 10176 10177 10177 10177 10178 10181 10184 10186 10188 10190 10192
10355 10349 10344 10338 10333 10327 10321 10316 10310 10305 10301 10297 10293 10288 10283 10278 10273 10268 10264 10259 10253 10248 10243 10238 10234 10228 10224 10220 10217 10212 10207 10203 10200 10197 10194 10191 10190 10188 10186 10184 10181 10179 10178 10176 10175 10173 10171 10170 10169 10168 10166 10165 10165 10165 10166 10167 10169 10171 10173 10174 10177 10179 10181
10343 10338 10333 10328 10322 10316 10310 10304 10299 10294 10289 10285 10281 10276 10271 10266 10261 10256 10251 10246 10241 10235 10230 10225 10221 10216 10211 10208 10204 10199 10195 10192 10189 10186 10184 10182 10180 10178 10176 10173 10170 10169 10167 10165 10164 10162 10160 10160 10159 10157 10156 10155 10155 10155 10156 10157 10159 10161 10162 10164 10166 10168 10169
10332 10326 10321 10316 10311 10305 10299 10293 10287 10282 10278 10273 10269 10264 10259 10254 10249 10244 10238 10232 10227 10222 10217 10213 10208 10203 10199 10196 10192 10188 10185 10182 10180 10177 10175 10172 10170 10168 10166 10163 10160 10158 10156 10155 10154 10152 10151 10150 10149 10147 10147 10146 10146 10146 10147 10148 10150 10152 10152 10153 10155 10157 10159
10321 10315 10309 10304 10298 10293 10287 10281 10275 10270 10265 10261 10256 10252 10247 10242 10236 10231 10225 10220 10214 10209 10205 10201 10196 10192 10189 10186 10183 10179 10176 10174 10171 10169 10166 10163 10161 10159 10156 10154 10151 10148 10146 10145 10144 10143 10142 10140 10139 10138 10138 10137 10137 10138 10138 10139 10141 10142 10142 10143 10145 10148 10149
10309 10303 10297 10292 10286 10281 10275 10269 10263 10257 10252 10247 10243 10238 10233 10228 10222 10217 10212 10207 10202 10197 10193 10190 10186 10182 10179 10176 10174 10171 10168 10166 10163 10161 10158 10155 10153 10150 10148 10146 10143 10140 10138 10136 10135 10134 10132 10131 10131 10130 10129 10128 10129 10130 10130 10130 10131 10132 10133 10135 10137 10139 10139
10298 10292 10285 10279 10274 10269 10263 10256 10250 10244 10239 10234 10229 10224 10219 10214 10208 10203 10198 10194 10190 10186 10183 10179 10176 10173 10170 10168 10166 10163 10161 10159 10156 10153 10151 10148 10145 10142 10140 10138 10135 10132 10130 10128 10127 10125 10124 10123 10123 10122 10121 10121 10121 10121 10121 10121 10122 10124 10125 10127 10129 10129 10130
10286 10280 10273 10267 10262 10257 10251 10244 10237 10231 10226 10221 10217 10212 10206 10200 10194 10189 10185 10182 10179 10176 10173 10170 10167 10164 10162 10160 10158 10155 10153 10151 10148 10145 10143 10140 10137 10135 10132 10130 10127 10125 10123 10121 10119 10118 10116 10115 10114 10114 10113 10113 10113 10112 10112 10112 10114 10115 10117 10119 10120 10121 10123
10274 10268 10262 10255 10249 10244 10238 10232 10225 10219 10214 10210 10205 10200 10194 10187 10181 10176 10173 10171 10168 10166 10164 10161 10158 10156 10154 10151 10149 10147 10145 10142 10139 10137 10134 10131 10129 10126 10124 10122 10119 10117 10115 10113 10111 10110 10109 10107 10106 10106 10105 10105 10104 10104 10104 10105 10106 10108 10109 10111 10113 10115 10116
10262 10256 10250 10243 10237 10231 10226 10220 10213 10207 10202 10198 10194 10189 10183 10177 10171 10166 10164 10162 10159 10156 10154 10151 10149 10148 10146 10143 10141 10139 10137 10134 10130 10128 10125 10123 10120 10118 10116 10114 10111 10110 10108 10106 10104 10102 10101 10099 10099 10098 10097 10097 10096 10096 10097 10098 10099 10100 10102 10105 10107 10109 10110
10250 10243 10237 10231 10224 10218 10213 10208 10201 10195 10191 10186 10182 10178 10173 10167 10162 10158 10155 10154 10151 10147 10145 10142 10140 10138 10137 10134 10132 10130 10128 10125 10122 10119 10116 10114 10113 10110 10108 10106 10104 10102 10100 10098 10096 10094 10093 10092 10091 10090 10090 10089 10089 10089 10090 10091 10092 10094 10096 10099 10100 10102 10104
10237 10231 10225 10219 10212 10206 10200 10195 10189 10184 10179 10175 10171 10168 10164 10159 10153 10150 10148 10146 10142 10139 10136 10133 10130 10129 10128 10125 10123 10121 10119 10116 10113 10111 10109 10107 10105 10103 10100 10099 10097 10095 10093 10091 10089 10087 10086 10085 10084 10083 10083 10082 10082 10083 10083 10084 10086 10088 10091 10093 10094 10095 10097
10226 10219 10213 10207 10200 10193 10187 10182 10177 10172 10167 10164 10161 10159 10156 10151 10145 10142 10140 10137 10134 10130 10126 10123 10121 10120 10119 10117 10115 10112 10110 10108 10106 10103 10101 10100 10097 10095 10093 10092 10090 10088 10086 10084 10082 10081 10079 10078 10077 10076 10076 10076 10076 10076 10077 10078 10080 10082 10084 10086 10087 10088 10089
10214 10208 10202 10196 10189 10182 10174 10168 10165 10161 10157 10154 10152 10150 10147 10143 10137 10133 10131 10129 10125 10121 10118 10115 10112 10111 10110 10109 10107 10105 10102 10100 10097 10095 10094 10092 10090 10088 10086 10085 10083 10081 10079 10077 10076 10074 10073 10072 10071 10070 10070 10070 10070 10070 10071 10072 10074 10076 10078 10079 10080 10080 10081
10202 10196 10190 10184 10178 10171 10163 10156 10153 10151 10148 10145 10143 10140 10138 10135 10130 10124 10121 10120 10117 10113 10109 10107 10104 10103 10102 10101 10100 10097 10095 10092 10089 10087 10086 10084 10083 10081 10080 10078 10076 10073 10072 10071 10070 10068 10067 10065 10064 10064 10064 10064 10064 10064 10065 10066 10068 10070 10071 10071 10072 10073 10073
10190 10184 10177 10171 10165 10160 10153 10147 10142 10141 10139 10137 10134 10130 10127 10125 10121 10116 10112 10111 10108 10104 10101 10099 10097 10095 10094 10094 10093 10090 10087 10084 10080 10078 10077 10076 10075 10074 10072 10071 10068 10066 10065 10064 10063 10062 10061 10059 10058 10057 10057 10057 10057 10057 10058 10059 10062 10063 10064 10064 10065 10065 10065
10177 10171 10165 10158 10153 10148 10144 10138 10133 10130 10129 10127 10124 10120 10117 10114 10111 10108 10104 10102 10100 10097 10094 10091 10089 10087 10086 10086 10085 10082 10079 10076 10072 10069 10069 10068 10067 10066 10064 10063 10061 10059 10058 10057 10056 10055 10054 10053 10052 10051 10050 10049 10050 10050 10052 10053 10054 10056 10056 10056 10057 10057 10057
10163 10158 10152 10147 10141 10137 10133 10129 10124 10120 10118 10117 10114 10110 10107 10104 10101 10098 10096 10093 10091 10089 10086 10083 10081 10079 10077 10076 10076 10074 10071 10068 10064 10061 10060 10060 10058 10056 10055 10054 10052 10051 10050 10049 10048 10047 10046 10045 10044 10043 10042 10042 10042 10044 10045 10045 10045 10047 10048 10048 10048 10048 10048
10149 10145 10140 10136 10131 10126 10123 10119 10114 10110 10108 10106 10103 10100 10097 10094 10091 10088 10086 10084 10082 10081 10078 10075 10073 10070 10067 10066 10065 10064 10061 10058 10054 10052 10051 10050 10049 10047 10045 10043 10043 10041 10040 10040 10039 10038 10037 10036 10035 10034 10034 10034 10035 10035 10035 10035 10036 10038 10038 10038 10039 10039 10038
10136 10132 10128 10124 10120 10117 10113 10109 10105 10100 10097 10095 10093 10090 10087 10084 10081 10079 10076 10074 10072 10070 10068 10066 10063 10060 10056 10054 10054 10053 10051 10048 10044 10042 10040 10040 10038 10036 10034 10033 10032 10031 10030 10030 10029 10029 10028 10026 10025 10025 10025 10025 10025 10025 10025 10025 10026 10027 10028 10028 10028 10028 10028
10123 10119 10116 10112 10109 10106 10102 10098 10095 10091 10087 10085 10083 10080 10077 10073 10070 10067 10065 10063 10061 10059 10057 10055 10052 10049 10045 10042 10041 10040 10039 10036 10033 10030 10029 10028 10027 10025 10023 10021 10020 10019 10018 10018 10018 10018 10017 10015 10014 10014 10014 10013 10013 10014 10014 10014 10015 10015 10016 10016 10016 10016 10016
10111 10107 10104 10101 10097 10094 10091 10087 10084 10081 10077 10074 10072 10069 10066 10062 10059 10055 10053 10051 10049 10047 10045 10043 10040 10037 10034 10031 10028 10027 10026 10023 10020 10018 10016 10016 10015 10014 10011 10009 10007 10006 10006 10005 10005 10005 10005 10004 10003 10003 10001 10001 10001 10000 10001 10001 10002 10003 10003 10003 10003 10003 10003
10099 10095 10092 10089 10085 10082 10080 10077 10073 10069 10066 10063 10060 10057 10054 10051 10047 10043 10039 10036 10034 10032 10030 10028 10026 10023 10020 10017 10015 10013 10011 10009 10006 10004 10002 10002 10001 10000 9998 9996 9995 9993 9992 9992 9992 9992 9992 9990 9990 9989 9988 9987 9987 9987 9986 9987 9988 9989 9989 9989 9989 9990 9990
10088 10084 10081 10077 10073 10070 10067 10065 10062 10058 10054 10051 10047 10044 10041 10038 10034 10030 10026 10022 10020 10017 10015 10012 10010 10007 10005 10002 9999 9997 9995 9993 9991 9989 9987 9986 9985 9985 9983 9982 9981 9980 9979 9978 9978 9978 9977 9976 9976 9975 9974 9974 9973 9973 9972 9972 9973 9974 9974 9975 9975 9975 9975
10076 10072 10069 10066 10062 10059 10055 10052 10050 10046 10042 10038 10034 10031 10028 10024 10020 10016 10013 10009 10005 10002 9999 9996 9993 9991 9989 9986 9983 9981 9978 9976 9974 9972 9970 9969 9968 9967 9967 9966 9965 9965 9964 9964 9963 9963 9962 9962 9961 9960 9960 9959 9959 9959 9958 9957 9958 9959 9959 9960 9960 9959 9959
10063 10060 10057 10053 10050 10047 10043 10039 10036 10033 10029 10025 10021 10017 10014 10010 10006 10003 9999 9995 9991 9987 9983 9980 9977 9974 9971 9969 9966 9964 9961 9959 9957 9955 9953 9952 9950 9949 9949 9948 9947 9947 9947 9947 9947 9947 9946 9946 9945 9945 9945 9945 9945 9944 9944 9943 9943 9943 9943 9944 9943 9943 9943
10050 10047 10044 10041 10037 10034 10030 10027 10023 10019 10015 10011 10007 10003 9999 9995 9991 9988 9985 9981 9976 9972 9967 9963 9960 9957 9954 9950 9948 9946 9943 9941 9938 9937 9935 9933 9932 9931 9930 9930 9929 9930 9929 9929 9929 9930 9929 9929 9929 9929 9929 9929 9929 9929 9929 9928 9928 9927 9928 9928 9927 9927 9927
10036 10032 10029 10026 10023 10019 10016 10012 10008 10004 10000 9996 9992 9988 9984 9979 9975 9972 9968 9964 9960 9955 9950 9946 9942 9939 9936 9932 9930 9927 9925 9922 9920 9918 9916 9915 9914 9913 9912 9911 9911 9912 9911 9911 9912 9912 9912 9912 9912 9912 9912 9912 9913 9914 9914 9914 9913 9913 9912 9912 9911 9911 9910
10023 10019 10015 10011 10008 10004 10000 9996 9992 9988 9984 9980 9976 9972 9967 9963 9958 9954 9950 9946 9941 9937 9932 9928 9924 9920 9917 9914 9912 9909 9906 9904 9901 9899 9898 9897 9896 9895 9894 9893 9893 9894 9894 9894 9894 9894 9894 9894 9893 9894 9895 9896 9898 9898 9898 9898 9898 9897 9896 9896 9895 9895 9894